Zurück zum Katalog

BADR-5

ARABSAT 5B

AktivKommunikationGEO
NORAD 36592·PAYLOAD·🇦🇪 UAE🇸🇦 Saudi Arabia

Gestartet Jun 3, 2010 von Baikonur Cosmodrome

Loading…

TLE

AktuellSource: Space-Track

Epoche: Sep 14, 2026, 13:56 UTC

1 36592U 10025A   26257.58116771  .00000146  00000-0  00000-0 0  9992
2 36592   0.0563 117.3858 0007857  95.5239  20.3658  1.00274278 54110

Verfolge BADR-5 in Echtzeit mit AllMySat

Download on the App Store